AirNav   Everest Fuels
 
 416 users online  

82FD Lockheed Martin Heliport
Orlando, Florida, USA

GOING TO ORLANDO?


FAA INFORMATION EFFECTIVE 16 JULY 2020

Location

FAA Identifier: 82FD
Lat/Long: 28-26-48.4900N 081-27-03.6900W
28-26.808167N 081-27.061500W
28.4468028,-81.4510250
(estimated)
Elevation: 98 ft. / 30 m (estimated)
From city: 7 miles SW of ORLANDO, FL
Time zone: UTC -4 (UTC -5 during Standard Time)
Zip code: 32819

Heliport Operations

Heliport use: Private use. Permission required prior to landing
Activation date: 12/2015
Control tower: no
ARTCC: JACKSONVILLE CENTER
FSS: SAINT PETERSBURG FLIGHT SERVICE STATION
Attendance: IREG
Wind indicator: yes
Segmented circle: no

Heliport Communications

WX ASOS at MCO (8 nm E): PHONE 407-855-5235
WX ASOS at ORL (9 nm NE): PHONE 407-658-6753
WX AWOS-3PT at ISM (9 nm S): 128.775 (407-847-0533)

Nearby radio navigation aids

VOR radial/distance  VOR name  Freq  Var
ORLr227/8.4ORLANDO VORTAC112.2000E

Heliport Services

Runway Information

Helipad H1

Dimensions: 34 x 34 ft. / 10 x 10 m
Surface: asphalt
Runway edge lights: medium intensity
Traffic pattern: leftleft

Heliport Ownership and Management from official FAA records

Ownership: Privately-owned
Owner: LOCKHEED MARTIN CORPORATION
5600 SAND LAKE ROAD
ORLANDO, FL 32819-8907
Phone 407-356-5842
Manager: RICHARD FIELDS
5600 SAND LAKE ROAD, MAIL DROP 88
ORLANDO, FL 32819-8907
Phone 407-356-5842

Additional Remarks

FOR CD CTC ORLANDO APCH AT 407-852-7553.

Instrument Procedures

There are no published instrument procedures at 82FD.

Some nearby airports with instrument procedures:

KMCO - Orlando International Airport (8 nm E)
KORL - Executive Airport (9 nm NE)
KISM - Kissimmee Gateway Airport (9 nm S)
X04 - Orlando Apopka Airport (17 nm NW)
KSFB - Orlando Sanford International Airport (23 nm NE)
 
Loc | Ops | Rwys | IFR | FBO | Links
Com | Nav | Svcs | Stats | Notes
Aerial photo
No photo
 
Airport distance calculator
Flying to Lockheed Martin Heliport? Find the distance to fly.

From to 82FD

Sunrise and sunset
Times for 12-Aug-2020
 Local
(UTC-4)
 Zulu
(UTC)
Morning civil twilight06:3010:30
Sunrise06:5510:55
Sunset20:0600:06
Evening civil twilight20:3100:31

Current date and time
Zulu (UTC)  12-Aug-2020 07:18:18
Local (UTC-4)  12-Aug-2020 03:18:18
 
METAR
KMCO 
6nm E 
120653Z 21003KT 10SM FEW006 SCT250 25/24 A3001 RMK AO2 SLP162 T02500239
KORL 
9nm NE 
111753Z 27006KT 10SM FEW048 34/21 A3002
KISM 
10nm S 
120656Z AUTO 22003KT 10SM CLR 24/24 A3003 RMK AO2 SLP167 T02440239
TAF
KMCO 
6nm E 
120540Z 1206/1312 VRB03KT P6SM FEW010 SCT250 FM121500 19004KT P6SM SCT030 SCT250 FM121900 18007KT P6SM VCTS SCT045CB SCT120 BKN200 FM130000 17005KT P6SM VCSH FEW060 SCT120 BKN250 FM130300 VRB03KT P6SM FEW030 BKN250
KISM 
10nm S 
120540Z 1206/1306 VRB03KT P6SM FEW010 SCT250 FM121500 19004KT P6SM SCT030 SCT250 FM121900 18007KT P6SM VCTS SCT045CB SCT120 BKN200 FM130000 17005KT P6SM VCSH FEW060 SCT120 BKN250 FM130300 VRB03KT P6SM FEW030 BKN250
NOTAMs
Click for the latest NOTAMs
NOTAMs are issued by the DoD/FAA and will open in a separate window not controlled by AirNav.

 

 
 

Would you like to see your business listed on this page?

 If your business provides an interesting product or service to pilots, flight crews, aircraft, or users of the Lockheed Martin Heliport, you should consider listing it here.  To start the listing process, click on the button below
 
Add a business
 

Other Pages about Lockheed Martin Heliport

Update a link
 
Copyright © AirNav, LLC. All rights reserved. Privacy Policy  Contact